TimeEST,TemperatureF,Dew PointF,Humidity,Sea Level PressureIn,VisibilityMPH,Wind Direction,Wind SpeedMPH,Gust SpeedMPH,PrecipitationIn,Events,Conditions,WindDirDegrees,DateUTC
12:53 AM,24.1,19.9,84,29.55,1.8,NNW,3.5,-,0.01,Snow,Light Snow,330,2012-12-30 05:53:00
1:01 AM,24.8,19.4,80,29.51,2.5,Variable,3.5,-,0.01,Snow,Light Snow,0,2012-12-30 06:01:00
1:16 AM,24.8,19.4,80,29.51,1.2,Calm,Calm,-,0.01,Snow,Light Snow,0,2012-12-30 06:16:00
1:35 AM,24.8,19.4,80,29.51,2.5,Calm,Calm,-,0.01,Snow,Light Snow,0,2012-12-30 06:35:00
1:40 AM,24.8,19.4,80,29.51,3.0,Calm,Calm,-,0.01,Snow,Light Snow,0,2012-12-30 06:40:00
1:53 AM,25.0,19.9,81,29.55,5.0,Variable,3.5,-,0.01,Snow,Light Snow,0,2012-12-30 06:53:00
2:53 AM,24.1,19.0,81,29.56,10.0,Calm,Calm,-,0.00,,Overcast,0,2012-12-30 07:53:00
3:53 AM,24.1,18.0,77,29.57,8.0,NW,8.1,-,N/A,,Overcast,320,2012-12-30 08:53:00
4:19 AM,24.8,17.6,74,29.54,10.0,NW,6.9,17.3,N/A,,Overcast,310,2012-12-30 09:19:00
4:53 AM,23.0,15.1,72,29.60,7.0,NW,11.5,23.0,N/A,,Unknown,320,2012-12-30 09:53:00
5:29 AM,21.2,12.2,68,29.60,10.0,North,10.4,18.4,N/A,,Overcast,10,2012-12-30 10:29:00
5:53 AM,21.0,12.0,68,29.65,6.0,NNE,5.8,-,N/A,,Haze,20,2012-12-30 10:53:00
6:26 AM,19.4,10.4,68,29.63,9.0,NNW,5.8,-,N/A,,Mostly Cloudy,330,2012-12-30 11:26:00
6:53 AM,19.0,10.0,68,29.69,10.0,NNW,4.6,-,N/A,,Overcast,330,2012-12-30 11:53:00
7:53 AM,17.1,10.0,74,29.72,9.0,Calm,Calm,-,N/A,,Mostly Cloudy,0,2012-12-30 12:53:00
8:53 AM,19.0,10.0,68,29.74,10.0,NW,4.6,-,N/A,,Overcast,320,2012-12-30 13:53:00
9:53 AM,19.9,10.9,68,29.76,10.0,WNW,5.8,-,0.00,,Overcast,300,2012-12-30 14:53:00
9:58 AM,21.2,10.4,63,29.73,10.0,Calm,Calm,-,N/A,,Scattered Clouds,0,2012-12-30 14:58:00
10:53 AM,23.0,12.0,63,29.76,10.0,North,4.6,-,N/A,,Scattered Clouds,350,2012-12-30 15:53:00
11:53 AM,24.1,10.9,57,29.75,10.0,NNW,11.5,18.4,N/A,,Scattered Clouds,340,2012-12-30 16:53:00
12:53 PM,24.1,9.0,53,29.76,10.0,NNW,12.7,19.6,N/A,,Clear,340,2012-12-30 17:53:00
1:37 PM,24.8,8.6,50,29.73,1.8,NNW,17.3,28.8,0.00,Snow,Light Snow,330,2012-12-30 18:37:00
1:51 PM,24.8,10.4,54,29.73,3.0,NW,19.6,28.8,0.00,Snow,Light Snow,320,2012-12-30 18:51:00
1:53 PM,24.1,9.0,53,29.77,4.0,NW,15.0,28.8,0.00,Snow,Light Snow,320,2012-12-30 18:53:00
2:53 PM,23.0,8.1,53,29.80,10.0,WNW,16.1,28.8,0.00,,Clear,300,2012-12-30 19:53:00
3:53 PM,21.9,6.1,51,29.85,10.0,WNW,13.8,21.9,N/A,,Clear,300,2012-12-30 20:53:00
4:53 PM,19.9,5.0,52,29.89,10.0,NNW,8.1,-,N/A,,Clear,340,2012-12-30 21:53:00
5:53 PM,18.0,3.9,54,29.95,10.0,NNW,5.8,-,N/A,,Clear,340,2012-12-30 22:53:00
6:53 PM,18.0,3.9,54,29.98,10.0,North,9.2,-,N/A,,Clear,350,2012-12-30 23:53:00
7:53 PM,15.1,3.0,59,30.01,10.0,Calm,Calm,-,N/A,,Clear,0,2012-12-31 00:53:00
8:53 PM,17.1,3.9,56,30.02,10.0,NNW,8.1,18.4,N/A,,Clear,340,2012-12-31 01:53:00
9:53 PM,15.1,3.0,59,30.03,10.0,Variable,4.6,-,N/A,,Clear,0,2012-12-31 02:53:00
10:53 PM,7.0,-0.0,73,30.06,10.0,Calm,Calm,-,N/A,,Clear,0,2012-12-31 03:53:00
11:53 PM,3.9,-0.9,80,30.06,10.0,Calm,Calm,-,N/A,,Clear,0,2012-12-31 04:53:00